Flag for Germany Weather past 2 weeks in Bad Hersfeld, Hesse, Germany

Now
57 °F

More clouds than sun.


Feels Like: 55 °F
Forecast: 44 / 60 °F
Wind: 12 mph from Southwest

Location: Fritzlar Airport

Current Time: May 29, 2015 at 11:34:31 AM

Latest Report: May 29, 2015 at 10:20 AM


Visibility: N/A

Pressure: 29.89 "Hg

Humidity: 59%

Dew point: 43 °F

Location of Bad HersfeldLocation

Historic Weather in Bad Hersfeld — Graph

°F

Bad Hersfeld temperature yesterday

Maximum temperature yesterday: 66 °F (at 1:20 PM)
Minimum temperature yesterday: 46 °F (at 12:20 AM)
Average temperature yesterday: 55 °F

Past Weeks' High & Low Weather Summary

 TemperatureHumidityPressure
High70 °F (May 18, 5:00 PM)100% (May 25, 3:20 AM)30.33 "Hg (May 25, 3:20 AM)
Low36 °F (May 17, 5:20 AM)34% (May 15, 4:20 PM)29.65 "Hg (May 18, 7:20 PM)
Average53 °F68%30.05 "Hg
* Reported May 14 10:20 AM — May 29 10:20 AM, Bad Hersfeld, Weather by CustomWeather, © 2015

Note: Actual official high and low records may vary slightly from our data, if they occured in-between our weather recording intervals... More about our weather records

Advertising

Bad Hersfeld weather history for previous 24 hours

 ConditionsComfort  
Time TempWeatherWind HumidityBarometerVisibility
10:20 AM
Fri, May 29
57 °FMore clouds than sun.12 mph59%29.89 "HgN/A
9:20 AM54 °FOvercast.7 mph77%29.89 "HgN/A
8:20 AM52 °FBroken clouds.2 mph82%29.92 "HgN/A
7:20 AM48 °FBroken clouds.1 mph87%29.92 "HgN/A
6:20 AM45 °FPartly sunny.1 mph93%29.92 "HgN/A
5:20 AM46 °FPassing clouds.1 mph87%29.92 "HgN/A
4:20 AM45 °FPassing clouds.3 mph93%29.92 "HgN/A
3:20 AM46 °FPassing clouds.1 mph87%29.95 "HgN/A
2:20 AM46 °FPassing clouds.3 mph93%29.95 "HgN/A
1:20 AM48 °FPartly cloudy.2 mph87%29.95 "HgN/A
12:20 AM48 °FPartly cloudy.2 mph87%29.95 "HgN/A
11:20 PM
Thu, May 28
52 °FPartly cloudy.3 mph77%29.95 "HgN/A
10:20 PM54 °FBroken clouds.6 mph72%29.95 "HgN/A
9:20 PM55 °FBroken clouds.7 mph67%29.92 "HgN/A
8:20 PM57 °FBroken clouds.14 mph63%29.92 "HgN/A
7:20 PM63 °FPartly sunny.9 mph56%29.89 "HgN/A
6:20 PM63 °FScattered showers. Scattered clouds.14 mph56%29.89 "HgN/A
5:20 PM63 °FScattered showers. Scattered clouds.10 mph64%29.92 "HgN/A
4:20 PM61 °FSprinkles. Partly sunny.10 mph63%29.92 "HgN/A
3:20 PM64 °FPartly sunny.10 mph52%29.92 "HgN/A
2:20 PM64 °FPartly sunny.13 mph52%29.92 "HgN/A
1:20 PM66 °FScattered clouds.16 mph49%29.92 "HgN/A
12:20 PM61 °FPartly sunny.16 mph55%29.95 "HgN/A
11:20 AM57 °FBroken clouds.13 mph59%29.98 "HgN/A
Weather by CustomWeather, © 2015

See weather overviewHow to use our weather pages